Tracking 32963 objects as of 21-Jan-2026
HD Live streaming from Space Station
objects crossing your sky now

FENGYUN 1C DEB

Track FENGYUN 1C DEB now!
10-day predictions


NORAD ID: 31844
Int'l Code: 1999-025CJJ
Perigee: 758.9 km
Apogee: 906.6 km
Inclination: 100.3 °
Period: 101.4 minutes
Semi major axis: 7203 km
RCS: 0.0099 m2 (small)
Launch date: May 10, 1999
Source: People's Republic of China (PRC)
Launch site: Taiyaun Space Center, China (TSC)

Note: This is SATELLITE DEBRIS
Your satellite tracking list
Your tracking list is empty




NASA's NSSDC Master Catalog

Two Line Element Set (TLE):
1 31844U 99025CJJ 26019.43241966  .00001637  00000-0  75694-3 0  9999
2 31844 100.3047  19.2232 0102491 247.6746 111.3535 14.19930740958671
Source of the keplerian elements: AFSPC